Regional Weather Roundup
Issued by NWS Northern Indiana

Home | Current Version | Previous Version | Graphics & Text | Print | Product List | Glossary On
Versions: 1 2 3 4 5 6 7 8 9 10 11 12 13 14 15 16 17 18 19 20 21 22 23 24 25 26 27 28 29 30 31 32 33 34 35 36 37 38 39 40 41 42 43 44 45 46 47 48 49 50
000
ASUS43 KIWX 280710
RWRIWX

KIWX WEATHER ROUNDUP
NATIONAL WEATHER SERVICE NORTHERN INDIANA
300 AM EDT TUE JUL 28 2015

NOTE: "FAIR" INDICATES FEW OR NO CLOUDS BELOW 12,000 FEET WITH NO
SIGNIFICANT WEATHER AND/OR OBSTRUCTIONS TO VISIBILITY.

* THESE STATIONS ARE NOT UNDER NWS QUALITY CONTROL. THEY ALSO MAY NOT
  REPORT WEATHER SUCH AS PRECIPITATION OR FOG.

INZ001>027-280800-
NORTHERN INDIANA

CITY           SKY/WX    TMP DP  RH WIND       PRES   REMARKS
GARY*          MOCLDY    72  67  85 E3        30.00R
VALPARAISO     MOCLDY    68  62  81 NE6       30.01S
MICHIGAN CITY* MOCLDY    64  64 100 CALM      30.01S
LAPORTE*       MOCLDY    67  66  96 E3        30.01S
KNOX*          MOCLDY    68  63  83 E3        29.99S
SOUTH BEND     MOCLDY    71  63  75 NE3       30.02F
GOSHEN         MOCLDY    65  62  90 NE3       30.02F
MONTICELLO*    MOCLDY    71  66  83 NE6       29.98S
LOGANSPORT*    MOCLDY    72  59  64 E6        29.99F
ROCHESTER*     MOCLDY    72  64  78 CALM      30.01S
WARSAW*        MOCLDY    68  63  83 E3        30.02S
ANGOLA*        CLEAR     64  54  68 CALM      30.04S
FORT WAYNE     MOCLDY    69  63  81 E5        30.01F
HUNTINGTON*    CLOUDY    69  64  82 E5        30.00F
PERU/GRISSOM   MOCLDY    71  65  80 NE5       29.98F
MARION*        PTCLDY    69  63  80 E3        29.99F

$$
INZ028>050-280800-
CENTRAL INDIANA

CITY           SKY/WX    TMP DP  RH WIND       PRES   REMARKS
LAFAYETTE      MOCLDY    72  67  84 E5        29.97S
KOKOMO*        MOCLDY    70  63  78 E6        29.99F
MUNCIE*        PTCLDY    70  67  90 E5        29.99F
INDIANAPOLIS   MOCLDY    75  70  84 SE6       29.96F

$$
MIZ043>046-050>051-056>058-064>065-071>073-077>080-280800-
SOUTHWEST LOWER MICHIGAN

CITY           SKY/WX    TMP DP  RH WIND       PRES   REMARKS
BATTLE CREEK   CLEAR     68  64  87 CALM      30.05S
BENTON HARBOR  PTCLDY    66  64  93 CALM      30.01F
COLDWATER*     CLEAR     66  62  89 CALM      30.04S
HILLSDALE*     CLEAR     64  64  97 CALM      30.04F
HOLLAND        CLEAR     67  64  90 CALM      30.03S
GRAND RAPIDS   CLEAR     69  66  90 CALM      30.04S
KALAMAZOO      CLEAR     66  63  90 CALM      30.04F
STURGIS*       PTCLDY    64  63  94 CALM      30.03F
THREE RIVERS*  FAIR      65  63  95 CALM      30.04S FOG

$$
OHZ001>008-015>018-024>025-280800-
NORTHWEST OHIO

CITY           SKY/WX    TMP DP  RH WIND       PRES   REMARKS
DEFIANCE       CLEAR     67  62  84 CALM      30.02F
FINDLAY        CLEAR     67  61  81 E3        30.01F
TOLEDO EXPRESS CLEAR     63  62  97 CALM      30.02F
TOLEDO METCALF CLEAR     70  62  76 NE3       30.03F
LIMA           PTCLDY    67  62  84 E6        30.01F

$$
AND FOR LAKE MICHIGAN COASTAL AND OPEN LAKE BUOY OBSERVATIONS

STATION/POSITION TEMP    WIND        PRES    VSBY  WAVE
                 AIR SEA DIR/SP/G                  HT/PER
                 (F)     (DEG/KT/KT) (MB)    (MI)  (FT/S)
CALUMET HARBOR    74      90/  3/  5   N/A
MICHIGAN CITY     73      80/  8/ 10   N/A
BURNS HARBOR      74     100/  9/ 11 1015.9F
SAINT JOSEPH      70      CALM  /  1 1016.3S
4 MI NW BRIDGMAN  73 73  160/  6/  8   N/A           1
MICHIGAN CITY     75 75  130/  6/  6   N/A           1/ 3

$$
&&


USA.gov is the U.S. government's official web portal to all federal, state and local government web resources and services.